Regional Weather Roundup
Issued by NWS

Home | Current Version | Previous Version | Text Only | Print | Product List | Glossary On
Versions: 1 2 3 4 5 6 7 8 9 10 11 12 13 14 15 16 17 18 19 20 21 22 23 24 25 26 27
000
ASUS42 KTBW 061715
RWRFL
FLORIDA REGIONAL WEATHER ROUNDUP
NATIONAL WEATHER SERVICE TAMPA BAY RUSKIN FL
100 PM EDT FRI MAY 06 2016

NOTE: "FAIR" INDICATES FEW OR NO CLOUDS BELOW 12,000 FEET WITH NO
SIGNIFICANT WEATHER AND/OR OBSTRUCTIONS TO VISIBILITY.

FLZ001>010-012>015-112-114-115-061800-
PANHANDLE FLORIDA

CITY           SKY/WX    TMP DP  RH WIND       PRES   REMARKS
PENSACOLA      SUNNY     72  44  36 NW12      30.01F
MILTON NAS     MOSUNNY   70  46  42 N10G17    30.00  SMOKE
CRESTVIEW      SUNNY     73  43  33 N9G18     30.00F
DUKE FIELD     FAIR      71  41  34 N9G20     29.98F
VALPARAISO     SUNNY     71  42  34 N14G23    29.99S
MARY ESTHER    MOSUNNY   71  42  35 N14G24    29.98
TRI COUNTY     FAIR      70  42  36 N13G23    29.97F
PANAMA CITY    FAIR      71  45  39 N13       29.95F
TYNDALL AFB    SUNNY     70  45  40 NW12      29.96F
APALACHICOLA   SUNNY     73  45  36 NW12      29.95F

STATION/POSITION SKY/WX   TEMP    WIND        PRES    WAVE   SWELL
                          AIR SEA DIR/SP/G            HT/PER HT/PER
                          (F)     (DEG/KT/KT) (MB)    (FT/S) (FT/S)
30.1N   87.6W              63 74  330/  6/ 10 1016.6R   1/ 3
29.2N   88.2W              66 74   20/ 10/ 12 1017.3R
28.8N   86.0W              67 77  360/ 10/ 14 1015.8F   4/ 6   3/ 6
PANAMA CITY BEAC           64 67  350/  9/ 16 1015.2F
TOWER C                    62     300/  9/ 11 1015.0F
28.5N   84.5W              67 73  350/ 10/ 12 1014.7R   4/ 7   3/ 7

$$
FLZ011-016>038-118-127-128-134-139-239-061800-
NORTH FLORIDA

CITY           SKY/WX    TMP DP  RH WIND       PRES   REMARKS
MARIANNA       SUNNY     70  45  40 N13       29.95F
TALLAHASSEE    MOSUNNY   72  43  35 NW14G22   29.93F
PERRY          SUNNY     70  43  37 W9        29.93S
LIVE OAK       FAIR      70  45  40 W12       29.93F
CROSS CITY       N/A     73  40  30 NW10      29.92F
LAKE CITY      FAIR      66  43  42 NW12      29.91F
GAINESVILLE    SUNNY     70  43  37 W10G16    29.90F
WILLISTON      FAIR      72  39  30 NW12      29.92F
PALATKA        FAIR      70  41  35 NW6G18    29.91S
MAYPORT NAS    SUNNY     69  42  37 VRB7      29.89F
JACKSONVILLE   MOSUNNY   69  43  38 N9        29.88F
JAX NAS        SUNNY     70  40  33 N7        29.90F
JAX CECIL      SUNNY     68  41  37 NW6       29.90F
FERNANDINA BEA FAIR      70  43  37 N7        29.87F
ST AUGUSTINE   SUNNY     69  43  38 N6        29.90F

STATION/POSITION SKY/WX   TEMP    WIND        PRES    WAVE   SWELL
                          AIR SEA DIR/SP/G            HT/PER HT/PER
                          (F)     (DEG/KT/KT) (MB)    (FT/S) (FT/S)
SHELL POINT                66     300/  9/ 14 1012.9
KEATON BEACH               64     280/  9/ 12 1013.3F
CEDAR KEY                  65     300/  9/ 14 1013.9F
FERNANDINA                 65 70  260/  4/  5 1012.5R
30.7N   81.3W                 71                N/A     1/ 3
MAYPORT                    62 70  290/  5/  9 1012.7R
ST AUGUSTINE               62 71   30/ 10/ 11 1013.1F

$$
FLZ040-043>046-052-053-057-058-063-144-061800-
INTERIOR CENTRAL FLORIDA

CITY           SKY/WX    TMP DP  RH WIND       PRES   REMARKS
OCALA          SUNNY     73  39  29 W9        29.91F
THE VILLAGES     N/A     73  41  31 W13G21    29.81F
LEESBURG       SUNNY     73  42  32 W13G22    29.91F
SANFORD        SUNNY     74  36  25 W16G25    29.89F
ORLANDO EXEC   SUNNY     75  41  29 W17G29    29.90F
ORLANDO INTL   MOSUNNY   74  45  35 NW12      29.90F
KISSIMMEE      SUNNY     73  46  38 W14G21    29.91F
WINTER HAVEN   SUNNY     74  46  36 W15       29.92F
LAKELAND       SUNNY     73  46  38 NW12G18   29.93F
BARTOW         SUNNY     72  41  33 W12G17    29.93F
OKEECHOBEE     SUNNY     73  46  38 NW12      29.91F

$$
FLZ041-047-054-059-064-141-147-061800-
EAST CENTRAL FLORIDA

CITY           SKY/WX    TMP DP  RH WIND       PRES   REMARKS
ORMOND BEACH   SUNNY     72  39  30 W9        29.89F
DAYTONA BEACH  MOSUNNY   73  37  27 NW12      29.89F
DELAND           N/A     73  37  27 W14G20    29.91S
NEW SMYRNA BEA SUNNY     70  36  28 W13G24    29.89S
JFK SPACE CTR  SUNNY     74  44  34 W12G20    29.88F
TITUSVILLE     SUNNY     73  37  27 NW23      29.89F
CAPE CANAVERAL SUNNY     75  42  30 NW14G23   29.88F
PATRICK AFB    SUNNY     76  42  30 NW12G17   29.88F
MELBOURNE      SUNNY     76  45  33 NW15G24   29.89F
VERO BEACH     SUNNY     76  42  29 NW17      29.90F
FT PIERCE      SUNNY     74  43  32 W12G21    29.90F
STUART         SUNNY     79  41  25 N13G21    29.91F

STATION/POSITION SKY/WX   TEMP    WIND        PRES    WAVE   SWELL
                          AIR SEA DIR/SP/G            HT/PER HT/PER
                          (F)     (DEG/KT/KT) (MB)    (FT/S) (FT/S)
28.5N   80.2W              69 77  310/ 14/ 17 1012.7R
28.9N   78.5W              71 79  300/ 16/ 21 1011.1R
TRIDENT PIER               71 76  280/ 10/ 14 1012.5S
28.4N   80.5W                 75                N/A     2/ 6
27.5N   80.2W                 75                N/A     3/ 4

$$
FLZ050-056-061-142-242-148-248-149-249-151-251-155-255-
160-260-061800-
WEST CENTRAL FLORIDA

CITY           SKY/WX    TMP DP  RH WIND       PRES   REMARKS
CRYSTAL RIVER  FAIR      70  46  43 W13G21    29.94S
INVERNESS      FAIR      72  43  35 W8        29.93S HAZE
BROOKSVILLE    SUNNY     74  42  31 NW14G23   29.93F
ZEPHYRHILLS    FAIR      74  38  27 W14G22    29.93F
CLEARWATER AIR FAIR      70  50  49 NW13      29.95R
ST PETE CLEARW SUNNY     75  46  35 NW15G23   29.95R
TAMPA INTL     MOSUNNY   75  41  29 W13G26    29.94S
TAMPA EXEC     SUNNY     77  45  31 W6        29.94S
PLANT CITY     SUNNY     75  48  38 NW14G23   29.94F
MACDILL AFB    SUNNY     76  43  31 N15       29.93F
PETER O KNIGHT SUNNY     77  45  31 W12       29.94S
ST PETERSBURG  SUNNY     73  45  36 N13G20    29.92S
SARASOTA       MOSUNNY   77  45  32 W13G20    29.92S
VENICE         NOT AVBL

STATION/POSITION SKY/WX   TEMP    WIND        PRES    WAVE   SWELL
                          AIR SEA DIR/SP/G            HT/PER HT/PER
                          (F)     (DEG/KT/KT) (MB)    (FT/S) (FT/S)
27.3N   84.2W                 78                N/A     4/ 6
CLEARWATER BEACH           67 75  350/ 10/ 12 1014.2S
MIDDLE TAMPA BAY           69      40/  9/ 12 1014.2S
VENICE                     72 79  330/ 11/ 12 1013.3F

$$
FLZ066-069-070-075>078-162-262-165-265-061800-
SOUTHWEST FLORIDA AND KEYS

CITY           SKY/WX    TMP DP  RH WIND       PRES   REMARKS
PUNTA GORDA    SUNNY     78  48  34 NW12      29.93F
FT MYERS       SUNNY     78  46  32 NW14      29.91F
SOUTHWEST INTL MOSUNNY   77  46  33 NW8G18    29.91F
NAPLES         SUNNY     77  47  34 NW8       29.92S
MARCO ISLAND   SUNNY     79  45  29 N9        29.91F
MARATHON       SUNNY     79  59  50 NW6       29.92S
KEY WEST NAS   MOSUNNY   78  63  59 N8        29.93S
KEY WEST INTL  MOSUNNY   79  64  60 N7        29.93S

STATION/POSITION SKY/WX   TEMP    WIND        PRES    WAVE   SWELL
                          AIR SEA DIR/SP/G            HT/PER HT/PER
                          (F)     (DEG/KT/KT) (MB)    (FT/S) (FT/S)
NAPLES                        79              1013.1F
26.0N   85.6W              75 79  350/  8/ 12 1015.1S   4/ 6   3/ 6
DRY TORTUGAS               74      10/ 10/ 12 1013.8F
SAND KEY                   74      30/  9/ 12 1013.9F
LONG KEY                   74 79  350/  3/  4 1013.4F
MOLASSES REEF              75 78  300/  7/  8 1013.2S

$$
FLZ067-068-071>074-168-172>174-061800-
SOUTHEAST FLORIDA

CITY           SKY/WX    TMP DP  RH WIND       PRES   REMARKS
W PALM BEACH   MOSUNNY   78  45  30 N8        29.90F
FT LAUDER-EXEC SUNNY     78  47  33 NW7       29.89F
FT LAUDERDALE  PTSUNNY   79  49  34 SW12      29.88F
POMPANO BEACH  SUNNY     79  48  33 NW12      29.89F
PEMBROKE PINES SUNNY     80  50  34 W8        29.91F
OPA LOCKA      SUNNY     80  51  36 N10       29.90F
MIAMI          MOSUNNY   78  51  38 W8        29.91F
WEST KENDALL   SUNNY     79  53  40 NW6       29.90F
HOMESTEAD      SUNNY     79  54  41 N9        29.90S

STATION/POSITION SKY/WX   TEMP    WIND        PRES    WAVE   SWELL
                          AIR SEA DIR/SP/G            HT/PER HT/PER
                          (F)     (DEG/KT/KT) (MB)    (FT/S) (FT/S)
PORT EVERGLADES            75     300/  9/ 13 1012.7S
VIRGINIA KEY               73 79   80/  3/  5 1013.1S
LAKE WORTH                 74 78  310/  5/ 12 1012.5R
SETTLEMENT POINT           74     310/ 13/ 16 1012.6F

$$





USA.gov is the U.S. government's official web portal to all federal, state and local government web resources and services.